"Time","Temp","Dewpoint","Humidity","Pressure","Direction","Speed","Gust","Precip","PrecipRate"
"00:04:56","35.5","22.6","59","29.76","258","2.7","6.9","0.00","0.00"
"00:09:57","35.5","22.6","59","29.76","269","3.9","13.2","0.00","0.00"
"00:14:57","35.7","22.8","59","29.77","269","3.5","7.2","0.00","0.00"
"00:19:56","35.7","22.8","59","29.77","232","2.7","6","0.00","0.00"
"00:24:58","35.8","22.9","59","29.77","269","2.9","8.4","0.00","0.00"
"00:29:59","35.7","22.8","59","29.78","310","2","6","0.00","0.00"
"00:34:56","35.7","22.8","59.2","29.78","267","3.3","8.4","0.00","0.00"
"00:39:59","35.7","22.8","59","29.78","266","3.2","7.2","0.00","0.00"
"00:44:56","35.8","23.2","59.7","29.78","275","3.6","12","0.00","0.00"
"00:49:57","35.6","23.1","60.2","29.78","216","3","8.4","0.00","0.00"
"00:54:59","35.4","23","60.2","29.78","264","3.8","12","0.00","0.00"
"00:59:56","35.5","23.1","60.2","29.79","257","4.8","13.2","0.00","0.00"
"01:04:57","35.7","23.2","60","29.79","249","4.5","10.4","0.00","0.00"
"01:09:59","35.9","23.4","60","29.79","258","4.7","10.8","0.00","0.00"
"01:14:58","35.9","23.4","60","29.80","261","4.5","16.1","0.00","0.00"
"01:19:59","36","23.5","60","29.80","282","4.4","12","0.00","0.00"
"01:24:57","36.1","23.5","60.2","29.80","269","4.7","13.2","0.00","0.00"
"01:29:58","36","23.5","60.2","29.81","276","4.1","12.7","0.00","0.00"
"01:34:59","36","23.4","60","29.81","263","3.1","7.2","0.00","0.00"
"01:39:58","35.9","23.5","60.2","29.81","274","4.3","13.2","0.00","0.00"
"01:44:59","36","23.5","60.2","29.81","267","4.3","15","0.00","0.00"
"01:49:56","36","23.7","60.8","29.81","293","2.5","6.9","0.00","0.00"
"01:54:58","35.7","23.6","61","29.81","237","1.9","4.8","0.00","0.00"
"01:59:59","35.5","23.6","61.3","29.82","266","2.2","12","0.00","0.00"
"02:04:56","35.6","23.4","60.7","29.82","277","3.8","12","0.00","0.00"
"02:09:58","36","23.2","59.5","29.82","294","7.3","21.6","0.00","0.00"
"02:14:57","36.2","23.1","58.5","29.83","296","6.1","21.9","0.00","0.00"
"02:19:58","36.2","22.9","58.2","29.83","268","4.3","15","0.00","0.00"
"02:24:59","36.1","22.8","58.4","29.83","253","2.6","5.8","0.00","0.00"
"02:29:59","35.8","22.9","59","29.84","260","2.3","8.4","0.00","0.00"
"02:34:56","35.7","22.8","59.2","29.84","274","3.5","10.8","0.00","0.00"
"02:39:58","35.5","23","59.9","29.84","241","2.6","8.1","0.00","0.00"
"02:44:56","35.4","22.9","60","29.85","240","3.7","7.2","0.00","0.00"
"02:49:57","35.2","23.1","61","29.85","242","2.5","10.8","0.00","0.00"
"02:54:59","35.2","23.1","61","29.85","253","3.5","9.6","0.00","0.00"
"02:59:56","35.2","23.1","61","29.85","250","3.2","7.2","0.00","0.00"
"03:04:57","35.3","23","60.3","29.85","281","3.3","8.4","0.00","0.00"
"03:09:59","35.6","22.8","59.1","29.85","297","4.8","13.2","0.00","0.00"
"03:14:58","35.8","22.9","59","29.86","299","4.9","13.2","0.00","0.00"
"03:19:59","35.8","22.9","59","29.86","272","2.8","7.2","0.00","0.00"
"03:24:57","35.6","22.8","59.2","29.86","293","2.8","10.8","0.00","0.00"
"03:29:59","35.5","22.6","59.1","29.87","251","2.6","4.8","0.00","0.00"
"03:34:56","35.3","22.6","59.6","29.87","247","3.7","12","0.00","0.00"
"03:39:58","35.1","22.6","59.8","29.87","248","5.1","14.4","0.00","0.00"
"03:44:56","35.2","22.4","59.1","29.87","270","3.9","11.5","0.00","0.00"
"03:49:57","35.2","22.3","59","29.87","240","4.1","9.6","0.00","0.00"
"03:54:58","35.1","22.1","58.7","29.87","269","4.2","10.8","0.00","0.00"
"03:59:58","35.2","22.1","58.5","29.88","261","3.5","10.4","0.00","0.00"
"04:04:59","35.1","21.8","58","29.88","275","4.3","10.8","0.00","0.00"
"04:09:57","35.1","21.8","58","29.88","303","5.3","10.8","0.00","0.00"
"04:14:59","35.2","21.5","57.2","29.89","274","5.4","13.2","0.00","0.00"
"04:19:56","35.2","21.5","57","29.89","262","4.4","14.4","0.00","0.00"
"04:24:57","35.1","21.5","57.3","29.89","266","5.2","15","0.00","0.00"
"04:29:58","35","21.1","56.7","29.89","280","7.4","20.7","0.00","0.00"
"04:34:59","35.2","21.1","56","29.89","295","7.9","18.4","0.00","0.00"
"04:39:56","35.2","21.1","56","29.89","279","5.8","17.3","0.00","0.00"
"04:44:58","35.1","21","55.9","29.90","297","6.9","25.2","0.00","0.00"
"04:49:59","35.2","21","55.8","29.90","283","8.6","23","0.00","0.00"
"04:54:56","35.2","20.9","55.7","29.90","300","4.6","23","0.00","0.00"
"04:59:58","35.1","21","56","29.91","280","7.3","23","0.00","0.00"
"05:04:59","35.1","21","55.8","29.91","288","6.7","20.7","0.00","0.00"
"05:09:57","35.2","20.9","55.7","29.91","303","8.4","23","0.00","0.00"
"05:14:59","35.2","20.9","55.6","29.93","275","4.2","18.4","0.00","0.00"
"05:19:59","35.2","21.1","55.8","29.93","268","5.2","13.2","0.00","0.00"
"05:24:56","35.2","21.1","55.8","29.93","285","6.5","18.4","0.00","0.00"
"05:29:56","35.3","21.1","55.8","29.94","266","4.5","15.6","0.00","0.00"
"05:34:57","35.2","20.9","55.5","29.94","263","5.3","13.2","0.00","0.00"
"05:39:59","35.3","20.7","55","29.94","295","4.4","12.7","0.00","0.00"
"05:44:59","35.3","20.8","55.2","29.95","287","6.2","18.4","0.00","0.00"
"05:49:59","35.3","20.8","55.3","29.95","294","5.3","16.1","0.00","0.00"
"05:54:56","35.2","21","55.8","29.95","290","4.6","17.3","0.00","0.00"
"05:59:56","35.1","21","56","29.97","285","6.6","16.1","0.00","0.00"
"06:04:56","35.1","21","56","29.97","306","5.1","15","0.00","0.00"
"06:09:56","35.1","21","56","29.97","309","6","12","0.00","0.00"
"06:14:58","34.9","21.2","56.8","29.98","312","5.7","12","0.00","0.00"
"06:19:58","34.9","21.2","57","29.98","324","7.6","17.3","0.00","0.00"
"06:24:59","34.8","21.1","57","29.98","304","5.7","16.1","0.00","0.00"
"06:29:59","34.7","21.3","57.7","29.99","320","5","13.2","0.00","0.00"
"06:34:56","34.7","21.4","58","29.99","321","6.3","15","0.00","0.00"
"06:39:58","34.8","21.5","58","29.99","326","7.4","16.1","0.00","0.00"
"06:44:59","34.8","21.5","58","30.00","320","7","15","0.00","0.00"
"06:49:59","34.7","21.4","58","30.00","327","5.6","16.1","0.00","0.00"
"06:54:56","34.7","21.5","58.2","30.00","310","7","16.8","0.00","0.00"
"06:59:57","34.8","21.5","58","30.01","303","6.6","18.4","0.00","0.00"
"07:04:57","34.8","21.5","58","30.01","281","5.3","17.3","0.00","0.00"
"07:09:59","34.6","21.6","58.7","30.01","285","5","19.2","0.00","0.00"
"07:14:57","34.5","21.5","58.5","30.02","304","7","19.6","0.00","0.00"
"07:19:58","34.6","21.6","58.8","30.02","277","3.9","12","0.00","0.00"
"07:24:59","34.6","21.7","59","30.02","307","5.6","13.2","0.00","0.00"
"07:29:56","34.6","21.5","58.3","30.03","277","5.3","20.7","0.00","0.00"
"07:34:57","34.6","21.6","58.7","30.03","284","6.1","17.3","0.00","0.00"
"07:39:56","34.7","21.4","58","30.03","332","8.9","26.4","0.00","0.00"
"07:44:58","34.9","21.6","58","30.04","322","8.8","19.6","0.00","0.00"
"07:49:59","35","21.7","58","30.04","316","6.7","16.1","0.00","0.00"
"07:54:57","35","21.7","58","30.04","303","5.6","15","0.00","0.00"
"07:59:58","35","21.7","58","30.06","328","7.5","18","0.00","0.00"
"08:04:58","35.1","21.8","58","30.06","321","6.4","18.4","0.00","0.00"
"08:09:56","35.3","21.7","57.3","30.06","296","6.7","17.3","0.00","0.00"
"08:14:59","35.5","21.9","57.2","30.06","295","4.7","15.6","0.00","0.00"
"08:19:56","35.8","22.1","57.2","30.06","301","6.4","19.2","0.00","0.00"
"08:24:56","36.3","22.2","56.4","30.06","293","8.7","24.2","0.00","0.00"
"08:29:57","36.8","22.4","55.7","30.07","332","7","20.7","0.00","0.00"
"08:34:58","37.2","22.4","54.9","30.07","316","8.3","24.2","0.00","0.00"
"08:39:57","37.3","22.4","54.6","30.07","316","8.2","20.7","0.00","0.00"
"08:44:56","37.6","22.5","54.3","30.08","299","10","27.6","0.00","0.00"
"08:49:59","37.6","22.4","54","30.08","303","6.4","18.4","0.00","0.00"
"08:54:59","37.8","22.5","53.7","30.08","299","6.9","16.1","0.00","0.00"
"08:59:59","37.8","22.5","53.8","30.09","302","8","17.3","0.00","0.00"
"09:04:59","37.9","22.6","53.7","30.09","297","6.8","16.1","0.00","0.00"
"09:09:57","38.2","22.8","53.6","30.09","313","6.8","16.8","0.00","0.00"
"09:14:56","38.3","23.1","53.9","30.10","295","7.3","17.3","0.00","0.00"
"09:19:56","38","22.7","53.9","30.10","309","10.4","25.3","0.00","0.00"
"09:24:57","37.7","22.9","54.8","30.10","304","7.5","19.6","0.00","0.00"
"09:29:57","37.8","23.4","55.8","30.11","323","5.8","20.4","0.00","0.00"
"09:34:58","37.8","23.5","56","30.11","307","9","23","0.00","0.00"
"09:39:56","38","23.7","56.1","30.11","330","8.8","21.9","0.00","0.00"
"09:44:57","38.2","23.9","56.2","30.12","318","9.5","22.8","0.00","0.00"
"09:49:58","38.6","24.2","56","30.12","311","7.1","17.3","0.00","0.00"
"09:54:59","38.6","24","55.5","30.12","323","8.1","19.6","0.00","0.00"
"09:59:59","38.4","23.8","55.4","30.13","305","8.1","18.4","0.00","0.00"
"10:04:56","38.6","23.8","55","30.13","292","9.1","18.4","0.00","0.00"
"10:09:58","38.6","24.1","55.9","30.13","289","8.6","17.3","0.00","0.00"
"10:14:56","38.9","24.2","55.4","30.13","288","9.3","24","0.00","0.00"
"10:19:57","38.2","23.6","55.4","30.13","295","8.5","24.2","0.00","0.00"
"10:24:58","38.7","24.4","56.1","30.13","292","8.3","18.4","0.00","0.00"
"10:29:59","38.9","24.1","54.9","30.14","328","10.6","26.4","0.00","0.00"
"10:34:56","39.1","24.3","55","30.14","321","10.4","26.5","0.00","0.00"
"10:39:58","39.3","23.9","53.7","30.14","327","12.1","26.5","0.00","0.00"
"10:44:59","39.2","23.6","53.2","30.14","316","11.2","26.5","0.00","0.00"
"10:49:59","39.3","23.8","53.5","30.14","319","9.5","31.2","0.00","0.00"
"10:54:56","39.4","23.7","53.2","30.14","336","11.7","31.1","0.00","0.00"
"10:59:57","39.9","24.1","53.1","30.15","322","10.7","27.6","0.00","0.00"
"11:04:58","40.2","24.4","53","30.15","292","8.1","17.3","0.00","0.00"
"11:09:56","39.8","23.9","52.7","30.15","309","6.3","21.6","0.00","0.00"
"11:14:58","39.3","23.5","52.7","30.15","332","10.7","24.2","0.00","0.00"
"11:19:59","38.8","23.1","53","30.15","330","10.5","24.2","0.00","0.00"
"11:24:59","38.5","23.3","54.1","30.15","312","7.6","18.4","0.00","0.00"
"11:29:56","38.4","23.3","54.3","30.16","314","8.5","19.6","0.00","0.00"
"11:34:57","39","24.7","56.3","30.16","308","7","20.4","0.00","0.00"
"11:39:58","39.7","24.1","53.3","30.16","303","9","23","0.00","0.00"
"11:44:59","39","23.7","54","30.17","320","6.7","16.1","0.00","0.00"
"11:49:59","38.5","23.7","55.2","30.17","328","7.7","21.6","0.00","0.00"
"11:54:56","38","23.5","55.4","30.17","339","9.1","20.4","0.00","0.00"
"11:59:56","37.7","23.6","56.6","30.18","326","9.2","20.7","0.00","0.00"
"12:04:57","37.6","23.6","56.7","30.18","330","6.4","14.4","0.00","0.00"
"12:09:59","37.7","23.7","56.8","30.18","317","8.1","17.3","0.00","0.00"
"12:14:57","37.9","23.6","56","30.18","312","6.3","16.1","0.00","0.00"
"12:19:58","37.9","23.2","55","30.18","336","10.1","24.2","0.00","0.00"
"12:24:59","37.8","23.2","55.3","30.18","313","6.7","17.3","0.00","0.00"
"12:29:59","37.7","23.3","55.7","30.18","305","7.1","21.9","0.00","0.00"
"12:34:56","37.6","22.8","54.8","30.18","303","7","19.6","0.00","0.00"
"12:39:58","38.1","23","54.2","30.18","318","7.9","19.6","0.00","0.00"
"12:44:58","39.1","23.2","52.5","30.18","314","8.5","26.5","0.00","0.00"
"12:49:59","39.2","22.7","51.3","30.18","301","7.7","16.1","0.00","0.00"
"12:54:56","39.3","22.3","50.2","30.18","282","7.6","27.6","0.00","0.00"
"12:59:56","38.9","21.6","49.5","30.19","317","9","21.9","0.00","0.00"
"13:04:57","38.4","21.2","49.5","30.19","321","11.2","21.9","0.00","0.00"
"13:09:59","38.8","21.8","50.2","30.19","291","9.1","20.7","0.00","0.00"
"13:14:57","39.3","22.1","49.8","30.19","324","8.2","19.6","0.00","0.00"
"13:19:57","38.9","22.1","50.5","30.19","329","7.2","19.6","0.00","0.00"
"13:24:58","38.9","22.1","50.7","30.19","331","9.2","23","0.00","0.00"
"13:29:58","38.8","21.4","49.3","30.19","338","11.6","24.2","0.00","0.00"
"13:34:59","40.1","22.3","48.6","30.19","330","9.6","27.6","0.00","0.00"
"13:39:58","40.3","21.3","46.5","30.19","326","10.5","27.6","0.00","0.00"
"13:44:58","40.7","21.3","45.7","30.19","335","8.1","21.9","0.00","0.00"
"13:49:59","40.5","20.1","43.7","30.19","328","10.7","23","0.00","0.00"
"13:54:59","39.6","19.8","44.7","30.19","337","11.2","21.9","0.00","0.00"
"13:59:56","39.9","19.9","44.3","30.20","320","9.4","21.9","0.00","0.00"
"14:04:56","40.9","21.1","45","30.20","320","6.7","21.6","0.00","0.00"
"14:09:58","41.2","20.7","43.6","30.20","324","8","21.9","0.00","0.00"
"14:14:57","40.9","20.1","43","30.21","315","8.2","19.6","0.00","0.00"
"14:19:57","41.4","21","43.7","30.21","312","6.1","16.1","0.00","0.00"
"14:24:58","40.9","20.3","43.3","30.21","322","9.2","24.2","0.00","0.00"
"14:29:58","40.4","20.1","43.8","30.21","335","10.7","28.8","0.00","0.00"
"14:34:59","40.4","20","43.5","30.21","312","9.6","26.5","0.00","0.00"
"14:39:57","40.4","20.4","44.4","30.21","333","9.9","25.3","0.00","0.00"
"14:44:58","40.5","20.6","44.6","30.21","319","7.4","22.8","0.00","0.00"
"14:49:59","40.5","20.3","44.1","30.21","321","10.5","26.5","0.00","0.00"
"14:54:59","40.4","20.3","44.1","30.21","309","8.4","18","0.00","0.00"
"14:59:56","40.2","20.2","44.4","30.22","313","7.7","18.4","0.00","0.00"
"15:04:57","40","20.3","44.9","30.22","310","8.7","21.9","0.00","0.00"
"15:09:59","40.1","20.5","45.2","30.22","299","6.4","16.1","0.00","0.00"
"15:14:57","40.3","20.5","44.9","30.22","287","5.4","14.4","0.00","0.00"
"15:19:58","39.8","19.9","44.4","30.22","328","9.4","20.7","0.00","0.00"
"15:24:59","39.7","19.8","44.5","30.22","338","9.1","19.2","0.00","0.00"
"15:29:56","39.6","19.7","44.3","30.23","310","8.1","19.6","0.00","0.00"
"15:34:57","39.4","19.5","44.4","30.23","322","9.8","21.6","0.00","0.00"
"15:39:58","39.1","19.8","45.7","30.23","340","7.6","21.9","0.00","0.00"
"15:44:59","39","19.8","45.6","30.24","321","7.5","19.2","0.00","0.00"
"15:49:59","39","19.6","45.3","30.24","330","7.1","19.6","0.00","0.00"
"15:54:56","39","19.8","45.8","30.24","311","5.7","13.2","0.00","0.00"
"15:59:56","38.9","19.5","45.4","30.25","335","9","23","0.00","0.00"
"16:04:56","38.7","19.4","45.5","30.25","340","8","19.2","0.00","0.00"
"16:09:58","38.5","19.2","45.4","30.25","339","8.3","20.7","0.00","0.00"
"16:14:56","38.4","19.5","46.2","30.26","330","6.7","17.3","0.00","0.00"
"16:19:56","38.2","19.3","46.2","30.26","332","8.3","19.6","0.00","0.00"
"16:24:57","37.8","19.2","46.6","30.26","325","10.6","24.2","0.00","0.00"
"16:29:58","37.5","19.3","47.3","30.26","325","7.7","17.3","0.00","0.00"
"16:34:58","37.2","19.2","47.9","30.26","323","6.5","15.6","0.00","0.00"
"16:39:56","36.9","19.1","48.1","30.26","326","8.2","19.2","0.00","0.00"
"16:44:57","36.8","19.3","48.8","30.27","316","7.7","19.6","0.00","0.00"
"16:49:57","36.6","19.2","49","30.27","329","6","16.1","0.00","0.00"
"16:54:59","36.4","19.4","49.8","30.27","330","5.1","16.1","0.00","0.00"
"16:59:59","36.2","19.4","50.2","30.29","329","3.7","15","0.00","0.00"
"17:04:56","36","19.5","50.6","30.29","326","4","14.4","0.00","0.00"
"17:09:58","35.9","19.5","51.2","30.29","308","5","15","0.00","0.00"
"17:14:57","35.7","19.7","51.7","30.29","305","5.2","13.2","0.00","0.00"
"17:19:58","35.6","19.7","52","30.29","1","2","12","0.00","0.00"
"17:24:56","35.4","19.5","52","30.29","294","3.1","10.8","0.00","0.00"
"17:29:56","35.3","19.8","52.8","30.30","318","4.6","13.2","0.00","0.00"
"17:34:58","35.2","19.8","53","30.30","321","3.6","6.9","0.00","0.00"
"17:39:56","35.1","19.7","53","30.30","332","4.1","12","0.00","0.00"
"17:44:57","35","19.7","53.1","30.31","329","4.4","8.4","0.00","0.00"
"17:49:58","34.8","19.8","53.8","30.31","321","3.4","7.2","0.00","0.00"
"17:54:59","34.7","19.5","53.4","30.31","331","3.6","10.8","0.00","0.00"
"17:59:56","34.6","19.6","54","30.32","347","0.8","7.2","0.00","0.00"
"18:04:56","34.4","19.5","54","30.32","327","2.8","6.9","0.00","0.00"
"18:09:58","34.3","19.4","54","30.32","330","1.6","10.8","0.00","0.00"
"18:14:57","34.2","19.3","54","30.33","315","2.2","10.8","0.00","0.00"
"18:19:58","34","19.4","54.7","30.33","333","1.9","8.4","0.00","0.00"
"18:24:56","33.8","19.2","54.8","30.33","341","3.2","8.1","0.00","0.00"
"18:29:56","33.6","19.1","55","30.34","310","1.6","6","0.00","0.00"
"18:34:57","33.5","19.1","55.2","30.34","335","2.3","7.2","0.00","0.00"
"18:39:56","33.4","19.3","55.8","30.34","348","2","7.2","0.00","0.00"
"18:44:57","33.3","19.3","56","30.35","304","1.2","4.8","0.00","0.00"
"18:49:58","33.2","19.2","56","30.35","307","2.4","4.8","0.00","0.00"
"18:54:56","33.1","19.1","56","30.35","320","2","7.2","0.00","0.00"
"18:59:57","32.9","19.2","56.7","30.35","336","2.6","7.2","0.00","0.00"
"19:04:57","32.8","19.2","57","30.35","329","2.5","6.9","0.00","0.00"
"19:09:56","32.6","19.1","57.2","30.35","333","0.7","2.4","0.00","0.00"
"19:14:59","32.4","19.2","57.8","30.36","330","0.3","3.6","0.00","0.00"
"19:19:56","32.1","19","58","30.36","319","1.1","3.6","0.00","0.00"
"19:24:58","32","19.2","58.9","30.36","309","1.8","4.8","0.00","0.00"
"19:29:59","31.9","19.1","58.6","30.37","318","2.7","10.8","0.00","0.00"
"19:34:57","32","19","58.2","30.37","299","2.3","8.4","0.00","0.00"
"19:39:59","32.2","18.8","57.3","30.37","330","4.4","12","0.00","0.00"
"19:44:57","32.4","18.7","56.7","30.37","331","3.7","11.5","0.00","0.00"
"19:49:58","32.5","18.6","56.4","30.37","334","1.9","7.2","0.00","0.00"
"19:54:56","32.4","18.6","56.3","30.37","322","2.9","8.4","0.00","0.00"
"19:59:57","32.3","18.5","56.4","30.38","309","3.5","10.8","0.00","0.00"
"20:04:58","32.3","18.3","56","30.38","299","2.5","6","0.00","0.00"
"20:09:56","32.2","18.5","56.5","30.38","305","2.5","7.2","0.00","0.00"
"20:14:57","32.1","18.3","56.3","30.38","312","3.6","12","0.00","0.00"
"20:19:59","32.3","18.3","56","30.38","324","6.1","16.1","0.00","0.00"
"20:24:57","32.4","18.4","56","30.38","328","3.4","13.2","0.00","0.00"
"20:29:58","32.3","18.1","55.5","30.38","342","3.4","15","0.00","0.00"
"20:34:56","32.3","18.1","55.4","30.38","326","5.6","12","0.00","0.00"
"20:39:58","32.3","17.9","55","30.38","322","3.8","10.4","0.00","0.00"
"20:44:59","32.3","17.9","55","30.39","331","4.4","16.1","0.00","0.00"
"20:49:57","32.2","18","55.5","30.39","312","1","7.2","0.00","0.00"
"20:54:58","31.9","18","56","30.39","312","4.6","13.2","0.00","0.00"
"20:59:59","32","18","55.8","30.40","332","5.3","13.2","0.00","0.00"
"21:04:56","32","17.8","55.4","30.40","325","6","15","0.00","0.00"
"21:09:58","32.1","17.9","55.3","30.40","329","4.6","10.8","0.00","0.00"
"21:14:57","32","17.8","55.4","30.40","335","4.3","13.2","0.00","0.00"
"21:19:58","32","17.6","55","30.40","308","3.6","7.2","0.00","0.00"
"21:24:56","32","17.8","55.4","30.40","317","3.5","12","0.00","0.00"
"21:29:57","31.9","17.8","55.7","30.40","314","2.8","5.8","0.00","0.00"
"21:34:59","31.7","17.8","56","30.40","325","2.9","8.4","0.00","0.00"
"21:39:57","31.6","17.7","56","30.40","323","3.6","8.4","0.00","0.00"
"21:44:59","31.6","17.7","56","30.41","337","4","9.6","0.00","0.00"
"21:49:57","31.5","17.7","56.2","30.41","1","1","3.6","0.00","0.00"
"21:54:58","31.3","17.6","56.7","30.41","334","1.3","4.8","0.00","0.00"
"21:59:59","31","17.6","57.4","30.41","344","3.7","9.6","0.00","0.00"
"22:04:56","30.9","17.7","57.8","30.41","349","2.2","8.1","0.00","0.00"
"22:09:58","30.8","17.7","58","30.41","351","1.8","4.8","0.00","0.00"
"22:14:57","30.7","17.7","58","30.42","350","1.2","4.8","0.00","0.00"
"22:19:59","30.5","17.6","58.2","30.42","355","0.1","1.2","0.00","0.00"
"22:24:57","30.3","17.7","59","30.42","339","0.5","6","0.00","0.00"
"22:29:57","30.1","17.5","59","30.43","335","0.2","5.8","0.00","0.00"
"22:34:59","30","17.6","59.7","30.43","335","0.3","2.4","0.00","0.00"
"22:39:57","29.8","17.3","59.3","30.43","335","0.1","1.2","0.00","0.00"
"22:44:59","29.6","17.4","60","30.43","336","0","0","0.00","0.00"
"22:49:56","29.4","17.2","60","30.43","336","0","0","0.00","0.00"
"22:54:58","29.1","17.3","60.9","30.43","336","0","1.2","0.00","0.00"
"22:59:59","28.8","17.3","61.7","30.43","336","0","0","0.00","0.00"
"23:04:56","28.6","17.4","62.3","30.43","336","0","0","0.00","0.00"
"23:09:58","28.3","17.4","63.2","30.43","335","0.3","1.2","0.00","0.00"
"23:14:57","28.1","17.2","63.2","30.43","335","0","1.2","0.00","0.00"
"23:19:58","27.9","17","63.3","30.43","328","0.3","2.4","0.00","0.00"
"23:24:57","27.8","17.5","64.8","30.43","325","0","0","0.00","0.00"
"23:29:58","27.6","17.4","64.8","30.44","352","0.8","7.2","0.00","0.00"
"23:34:59","27.8","17.5","65","30.44","330","1.6","3.6","0.00","0.00"
"23:39:58","28","17.5","64.3","30.44","323","0.3","2.4","0.00","0.00"
"23:44:56","28.1","17.8","65","30.44","323","0.4","2.4","0.00","0.00"
